Location: Tierra del Sol
(32.6128°N, 116.3319°W)
Time: 20:59:23
(UTC-07:00)

N. Korean satellite - Pass Details

Date: 09 October 2017
Orbit: 459 x 517 km, 97.2° (Epoch: 16 October)

Event Time Altitude Azimuth Distance (km) Brightness Sun altitude
Rises 19:52:56 0° 208° (SSW) 2,578 10.5 -20.5°
Reaches altitude 10° 19:55:59 10° 237° (WSW) 1,687 10.0 -21.2°
Maximum altitude 19:57:44 13° 266° (W) 1,501 10.1 -21.5°
Drops below altitude 10° 19:59:28 10° 295° (WNW) 1,677 10.3 -21.9°
Sets 20:02:30 0° 324° (NW) 2,548 10.8 -22.5°
